Location: Shepherdstown, WV
(39.4326°N, 77.8042°W)
Time: 20:47:43
(UTC-04:00)

Vanguard 1 Rocket - Pass Details

Date: 15 August 2021
Orbit: 650 x 4226 km, 34.3° (Epoch: 16 September)

Event Time Altitude Azimuth Distance (km) Brightness Sun altitude
Rises 04:53:03 0° 204° (SSW) 7,096 - -16.5°
Exits shadow 04:55:03 - 201° (SSW) 6,839 11.4 -16.2°
Reaches altitude 10° 04:58:02 10° 196° (SSW) 6,490 11.3 -15.7°
Maximum altitude 05:17:53 37° 137° (SE) 5,447 11.4 -12.5°
Drops below altitude 10° 05:38:59 10° 82° (E) 6,984 13.3 -8.9°
Sets 05:44:27 0° 75° (ENE) 7,677 14.2 -7.9°
